Lincoln, NE

6:04 PM CDT on September 24, 2016 (GMT -0500)
Lincoln Municipal

Weather History for KLNK - March, 2014

Change the Weather History Date:

Thursday, March 6, 2014

  Actual Average Record
Temperature  
Mean Temperature 29 °F 36 °F  
Max Temperature 41 °F 48 °F 80 °F (1987)
Min Temperature 17 °F 25 °F -11 °F (1888)
Degree Days  
Heating Degree Days 36 29  
Month to date heating degree days 289 179  
Since 1 July heating degree days 5406 4882  
Cooling Degree Days 0 0  
Month to date cooling degree days 0 0  
Year to date cooling degree days 0 0  
Moisture  
Dew Point 24 °F    
Average Humidity 78    
Maximum Humidity 92    
Minimum Humidity 64    
Precipitation  
Precipitation 0.00 in 0.05 in 0.58 in (1892)
Month to date precipitation 0.03 0.26  
Year to date precipitation 0.89 1.67  
Snow  
Snow 0.00 in 0.10 in - ()
Month to date snowfall 0.6 1.0  
Since 1 July snowfall 17.6 20.7  
Snow Depth 0.00 in    
Sea Level Pressure  
Sea Level Pressure 30.10 in    
Wind  
Wind Speed 13 mph (South)    
Max Wind Speed 24 mph    
Max Gust Speed 30 mph    
Visibility 3 miles    
Events Fog    
T = Trace of Precipitation, MM = Missing Value Source: NWS Daily Summary

Daily Weather History Graph

Daily Weather History Graph

Search for Another Location

Airport or City:

Trip Planner

Search our weather history database for the weather conditions in past years. The results will help you decide how hot, cold, wet, or windy it might be!

Date:

Astronomy

Mar. 06, 2014 Rise Set
Actual Time 6:53 AM CST 6:23 PM CST
Civil Twilight 6:25 AM CST 6:51 PM CST
Nautical Twilight 5:54 AM CST 7:23 PM CST
Astronomical Twilight 5:22 AM CST 7:55 PM CST
Moon 9:59 AM CST (3/6) No Moon Set
Length of Visible Light 12h 25m
Length of Day
11h 30m
Waxing Crescent, 32% of the Moon is Illuminated
Mar 6
Waxing Crescent
Mar 8
First Quarter
Mar 16
Full
Mar 23
Last Quarter
Mar 30
New

Hourly Weather History & Observations

Time (CST) Temp. Windchill Dew Point Humidity Pressure Visibility Wind Dir Wind Speed Gust Speed Precip Events Conditions
12:54 AM 19.9 °F 13.4 °F 16.0 °F 85% 30.33 in 3.0 mi South 4.6 mph - N/A   Clear
1:54 AM 19.0 °F 11.1 °F 16.0 °F 88% 30.32 in 2.5 mi South 5.8 mph - N/A   Partly Cloudy
2:20 AM 19.0 °F 12.3 °F 15.1 °F 85% 30.26 in 2.5 mi SSE 4.6 mph - N/A   Mostly Cloudy
2:29 AM 18.0 °F 9.8 °F 16.0 °F 92% 30.25 in 3.0 mi SE 5.8 mph - N/A   Overcast
2:51 AM 19.4 °F 12.8 °F 17.6 °F 93% 30.24 in 3.0 mi SSE 4.6 mph - N/A   Overcast
2:54 AM 19.9 °F 13.4 °F 18.0 °F 92% 30.29 in 3.0 mi South 4.6 mph - N/A   Overcast
3:41 AM 21.0 °F 12.4 °F 19.0 °F 92% 30.24 in 2.5 mi South 6.9 mph - N/A   Overcast
3:54 AM 21.0 °F 9.3 °F 19.0 °F 92% 30.28 in 2.5 mi South 11.5 mph - N/A   Overcast
4:54 AM 21.9 °F 11.7 °F 19.0 °F 89% 30.27 in 2.0 mi SSE 9.2 mph - N/A   Overcast
5:09 AM 21.0 °F 9.9 °F 19.0 °F 92% 30.22 in 1.8 mi SSE 10.4 mph - N/A   Overcast
5:54 AM 21.0 °F 10.6 °F 19.0 °F 92% 30.25 in 1.2 mi South 9.2 mph - N/A   Overcast
6:54 AM 21.0 °F 10.6 °F 19.0 °F 92% 30.24 in 1.0 mi South 9.2 mph - N/A   Overcast
6:57 AM 21.0 °F 10.6 °F 19.0 °F 92% 30.19 in 0.5 mi South 9.2 mph - N/A Fog Light Freezing Fog
7:54 AM 21.9 °F 11.7 °F 19.9 °F 92% 30.22 in 0.8 mi South 9.2 mph - N/A   Overcast
8:54 AM 24.1 °F 13.7 °F 21.9 °F 91% 30.21 in 0.8 mi South 10.4 mph - N/A   Overcast
9:54 AM 25.0 °F 13.1 °F 23.0 °F 92% 30.19 in 0.8 mi SSE 13.8 mph - N/A   Overcast
10:01 AM 25.0 °F 12.6 °F 23.0 °F 92% 30.13 in 1.0 mi SSE 15.0 mph - N/A   Overcast
10:54 AM 27.0 °F 16.1 °F 24.1 °F 89% 30.17 in 1.0 mi South 12.7 mph - N/A   Overcast
10:57 AM 27.0 °F 16.1 °F 24.1 °F 89% 30.13 in 2.5 mi South 12.7 mph - N/A   Overcast
11:54 AM 30.0 °F 18.7 °F 25.0 °F 82% 30.14 in 2.5 mi South 16.1 mph - N/A   Haze
12:42 PM 33.1 °F 21.2 °F 26.1 °F 75% 30.05 in 3.0 mi South 20.7 mph - N/A   Haze
12:54 PM 34.0 °F 21.8 °F 27.0 °F 75% 30.09 in 3.0 mi South 23.0 mph - N/A   Haze
1:29 PM 37.0 °F 27.0 °F 27.0 °F 67% 30.03 in 4.0 mi SSE 18.4 mph - N/A   Haze
1:54 PM 39.0 °F 29.0 °F 28.0 °F 65% 30.04 in 5.0 mi South 20.7 mph 29.9 mph N/A   Haze
2:12 PM 37.9 °F 28.2 °F 27.0 °F 65% 29.99 in 5.0 mi South 18.4 mph - N/A   Haze
2:54 PM 39.9 °F 30.2 °F 28.0 °F 63% 30.00 in 6.0 mi South 20.7 mph - N/A   Haze
3:54 PM 39.0 °F 29.0 °F 28.0 °F 65% 29.98 in 5.0 mi South 20.7 mph - N/A   Haze
4:54 PM 39.0 °F 29.3 °F 28.9 °F 67% 29.95 in 6.0 mi South 19.6 mph - N/A   Haze
5:54 PM 37.0 °F 28.5 °F 28.9 °F 73% 29.93 in 5.0 mi South 13.8 mph - N/A   Haze
6:54 PM 33.1 °F 25.5 °F 28.0 °F 82% 29.93 in 5.0 mi South 9.2 mph - N/A   Haze
7:54 PM 27.0 °F 17.3 °F 24.1 °F 89% 29.91 in 4.0 mi South 10.4 mph - N/A   Clear
8:54 PM 30.9 °F 22.2 °F 28.0 °F 89% 29.89 in 4.0 mi South 10.4 mph - N/A   Clear
9:54 PM 37.0 °F 28.5 °F 30.9 °F 79% 29.89 in 7.0 mi South 13.8 mph - N/A   Clear
10:54 PM 37.9 °F 29.2 °F 30.9 °F 76% 29.86 in 7.0 mi South 15.0 mph - N/A   Clear
11:54 PM 37.9 °F 28.9 °F 30.9 °F 76% 29.83 in 7.0 mi South 16.1 mph - N/A   Clear